Windsor Heights, WV

10:47 PM EST on February 12, 2016 (GMT -0500)
Wheeling-Ohio County

Weather History for KHLG - October, 2013

Change the Weather History Date:

Friday, October 4, 2013

  Actual Average Record
Temperature  
Mean Temperature 72 °F 58 °F  
Max Temperature 81 °F 67 °F 88 °F (1951)
Min Temperature 63 °F 48 °F 35 °F (1952)
Degree Days  
Heating Degree Days 0 8  
Month to date heating degree days 0 31  
Since 1 July heating degree days 124 132  
Cooling Degree Days 7    
Month to date cooling degree days 18  
Year to date cooling degree days 723  
Growing Degree Days 21 (Base 50)    
Moisture  
Dew Point 64 °F    
Average Humidity 79    
Maximum Humidity 100    
Minimum Humidity 58    
Precipitation  
Precipitation 0.00 in 0.08 in 0.73 in (1986)
Month to date precipitation 0.20 0.35  
Sea Level Pressure  
Sea Level Pressure 30.09 in    
Wind  
Wind Speed 5 mph (SSW)    
Max Wind Speed 16 mph    
Max Gust Speed 22 mph    
Visibility 8 miles    
Events      
T = Trace of Precipitation, MM = Missing Value Source: NWS Daily Summary

Daily Weather History Graph

Daily Weather History Graph

Search for Another Location

Airport or City:

Trip Planner

Search our weather history database for the weather conditions in past years. The results will help you decide how hot, cold, wet, or windy it might be!

Date:

Astronomy

Oct. 04, 2013 Rise Set
Actual Time 7:22 AM EDT 6:59 PM EDT
Civil Twilight 6:55 AM EDT 7:26 PM EDT
Nautical Twilight 6:23 AM EDT 7:58 PM EDT
Astronomical Twilight 5:51 AM EDT 8:29 PM EDT
Moon 6:56 AM EDT (10/4) 6:41 PM EDT (10/4)
Length of Visible Light 12h 31m
Length of Day
11h 37m
Waning Crescent, 0% of the Moon is Illuminated
Oct 4
Waning Crescent
Oct 4
New
Oct 11
First Quarter
Oct 18
Full
Oct 26
Last Quarter

Hourly Weather History & Observations

Time (EDT) Temp. Dew Point Humidity Pressure Visibility Wind Dir Wind Speed Gust Speed Precip Events Conditions
12:53 AM 64.0 °F 63.0 °F 96% 30.08 in 9.0 mi Calm Calm - N/A   Mostly Cloudy
1:53 AM 64.0 °F 63.0 °F 96% 30.07 in 9.0 mi South 4.6 mph - N/A   Clear
2:53 AM 64.0 °F 63.0 °F 96% 30.06 in 10.0 mi Calm Calm - N/A   Clear
3:53 AM 63.0 °F 62.1 °F 97% 30.06 in 7.0 mi SSW 3.5 mph - N/A   Scattered Clouds
4:53 AM 64.0 °F 63.0 °F 96% 30.07 in 10.0 mi SSW 3.5 mph - N/A   Overcast
5:53 AM 64.0 °F 63.0 °F 96% 30.08 in 6.0 mi South 3.5 mph - N/A   Overcast
6:53 AM 64.0 °F 63.0 °F 96% 30.09 in 5.0 mi South 6.9 mph - N/A   Overcast
7:53 AM 64.0 °F 63.0 °F 96% 30.11 in 3.0 mi South 4.6 mph - N/A   Mostly Cloudy
8:53 AM 64.9 °F 64.0 °F 97% 30.12 in 3.0 mi SSW 4.6 mph - N/A   Mostly Cloudy
9:03 AM 64.4 °F 64.4 °F 100% 30.13 in 3.0 mi South 5.8 mph - N/A   Mostly Cloudy
9:13 AM 66.2 °F 64.4 °F 94% 30.13 in 2.5 mi South 6.9 mph - N/A   Scattered Clouds
9:20 AM 66.2 °F 64.4 °F 94% 30.13 in 3.0 mi South 6.9 mph - N/A   Scattered Clouds
9:53 AM 68.0 °F 66.0 °F 93% 30.12 in 9.0 mi SSW 3.5 mph - N/A   Scattered Clouds
10:53 AM 69.1 °F 66.0 °F 90% 30.12 in 10.0 mi SW 6.9 mph - N/A   Clear
11:53 AM 72.0 °F 66.9 °F 84% 30.11 in 10.0 mi SSW 6.9 mph - N/A   Clear
12:53 PM 75.0 °F 66.9 °F 76% 30.09 in 10.0 mi SSW 8.1 mph - N/A   Clear
1:53 PM 78.1 °F 66.9 °F 68% 30.07 in 10.0 mi SSW 11.5 mph 16.1 mph N/A   Partly Cloudy
2:53 PM 79.0 °F 64.9 °F 62% 30.06 in 10.0 mi SSW 10.4 mph 18.4 mph N/A   Partly Cloudy
3:53 PM 78.1 °F 63.0 °F 60% 30.05 in 10.0 mi WSW 9.2 mph 17.3 mph N/A   Partly Cloudy
4:53 PM 77.0 °F 64.0 °F 64% 30.06 in 10.0 mi West 6.9 mph - N/A   Overcast
5:53 PM 75.0 °F 64.9 °F 71% 30.06 in 10.0 mi West 3.5 mph - N/A   Mostly Cloudy
6:53 PM 73.9 °F 64.9 °F 73% 30.07 in 10.0 mi Calm Calm - N/A   Mostly Cloudy
7:53 PM 73.0 °F 64.9 °F 76% 30.07 in 10.0 mi Calm Calm - N/A   Partly Cloudy
8:53 PM 71.1 °F 66.0 °F 84% 30.07 in 10.0 mi SE 3.5 mph - N/A   Clear
9:53 PM 68.0 °F 66.0 °F 93% 30.09 in 8.0 mi WSW 3.5 mph - N/A   Clear
10:53 PM 70.0 °F 64.0 °F 81% 30.08 in 10.0 mi SSW 4.6 mph - N/A   Clear
11:53 PM 69.1 °F 64.0 °F 84% 30.09 in 10.0 mi South 4.6 mph - N/A   Clear